Startseite
Über Mich
AHP4
Galerie
Sehschlangen
Tourenbuch
Bookmarks
Elektronik
Bewertung
Geschichten
[Tagesmessung] [Jahreswerte] [Information]

Messwerte vom 06.06.2022

Die letzten Messwerte von 23:58:47 Uhr:
KategorieMesswert
Temperatur [°C]15
Luftdruck [mBar]998
Sonneneinstrahlung0
Wind [km/h]2 aus Süd
Niederschlag [l/m²]0
rel.Luftfeucht.87.8%
CO2 [ppm]548

Diagramme
Messwerte vom 06.06.2022
Tagesaggregation
KategorieMinimumMaximumSchnittSumme
Temperatur [°C]132718.6521
Luftdruck [mBar]995999997.5438
Sonneneinstrahlung247134.9333
Wind [km/h]17
rF [%]4096.680.9
Niederschlag [l/m²]2.575
CO2 [ppm]401617483.3
Einordnung alsVegetationstag
Sommertag

Messungen an benachbarten Tagen: Zur Jahresaggregation 2022
Tabelle aller Messwerte
UhrzeitTemperatur [°C]Luftdruck [mBar]SonneWind [km/h]RichtungRegen [l/m²]rF [%]CO2 [ppm]
00:01:48 17 996 0 0 SO 0 96.6 494
00:04:49 17 995 0 0 SO 0 96.6 503
00:07:48 17 996 0 0 SO 0 96.6 497
00:10:47 17 995 0 0 NO 0 96.6 495
00:13:50 17 996 0 0 NO 0 96.6 495
00:16:49 17 995 0 0 NO 0 96.6 500
00:19:49 17 996 0 0 SO 0 96.6 502
00:22:49 17 996 0 0 SO 0 96.6 502
00:25:46 17 996 0 1 S 0 96.6 503
00:28:47 17 996 0 1 O 0 96.6 507
00:31:48 17 996 0 1 SO 0 96.6 503
00:34:47 17 995 0 0 O 0 96.6 500
00:37:49 17 996 0 3 SO 0 96.6 498
00:40:48 17 996 0 3 S 0 96.6 495
00:43:47 18 996 0 1 SW 0 96.6 497
00:46:46 18 996 0 2 SW 0 96.6 504
00:49:47 18 996 0 2 S 0 96.6 501
00:52:48 18 997 0 2 SO 0 96.6 499
00:55:47 18 997 0 2 W 0 96.6 494
00:58:49 18 997 0 2 S 0 96.6 501
01:01:49 18 996 0 1 S 0 96.6 498
01:04:48 18 997 0 6 O 0 96.6 503
01:07:45 18 996 0 3 W 0 96.6 491
01:10:48 18 996 0 2 SW 0 96.6 495
01:13:49 18 997 0 0 SO 0 96.6 492
01:16:47 18 996 0 1 SW 0 96.6 495
01:19:48 17 997 0 0 SO 0 96.6 495
01:22:47 17 996 0 0 NW 0 96.6 498
01:25:48 17 996 0 2 S 0 96.6 492
01:28:46 17 996 0 1 NW 0 96.6 486
01:31:47 17 996 0 1 S 0 96.6 489
01:34:46 17 997 0 1 SO 0 96.6 501
01:37:47 17 997 0 3 SO 0 96.6 500
01:40:45 17 997 0 4 S 0 96.6 500
01:43:47 17 996 0 0 SO 0 96.6 490
01:46:48 17 996 0 0 SO 0 96.6 486
01:49:48 17 996 0 1 SO 0 96.6 492
01:52:47 17 996 0 0 O 0 96.6 488
01:55:44 17 996 0 1 O 0 96.6 495
01:58:45 17 996 0 1 W 0 96.6 497
02:01:48 17 997 0 1 SW 0 96.6 501
02:04:48 17 995 0 0 S 0 96.6 492
02:07:49 17 996 0 0 S 0 96.6 495
02:10:45 17 997 0 1 W 0 96.6 486
02:13:47 17 996 0 0 SO 0 96.6 489
02:16:46 17 996 0 0 W 0 96.6 492
02:19:49 17 996 0 0 S 0 96.6 495
02:22:46 17 996 0 3 0 96.6 492
02:25:48 17 996 0 1 SO 0 96.6 495
02:28:49 17 996 0 1 NW 0 96.6 495
02:31:46 17 996 0 1 W 0 96.6 501
02:34:47 17 995 0 0 SO 0 96.6 498
02:37:46 17 996 0 1 W 0 96.6 495
02:40:47 17 996 0 1 SW 0 96.6 495
02:43:47 17 996 0 3 S 0 96.6 485
02:46:49 17 996 0 2 SW 0 96.6 483
02:49:47 17 996 0 2 O 0 96.6 483
02:52:46 17 996 0 2 S 0 96.6 495
02:55:48 17 996 0 3 S 0 96.6 498
02:58:49 17 996 0 3 S 0 96.6 498
03:01:47 16 995 0 2 W 0 96.6 498
03:04:47 16 996 0 2 W 0 96.6 497
03:07:47 16 996 0 4 SW 0 96.6 498
03:10:46 16 996 0 2 O 0 96.6 489
03:13:48 16 997 0 1 S 0 96.6 492
03:16:48 16 997 0 2 SO 0 96.6 497
03:19:49 16 996 0 0 SO 0 96.6 497
03:22:47 16 996 0 2 SW 0 96.6 504
03:25:49 16 997 0 5 SW 0 96.6 498
03:28:48 16 996 0 1 NW 0 96.6 490
03:31:46 16 996 0 2 O 0 96.6 481
03:34:48 16 996 0 0 NO 0 96.6 484
03:37:48 16 996 0 1 SW 0 96.6 489
03:40:48 16 996 0 3 NO 0 96.6 492
03:43:45 16 996 0 2 S 0 96.6 494
03:46:44 16 996 0 1 S 0 96.6 492
03:49:48 16 996 0 2 W 0 96.6 487
03:52:45 16 996 0 1 W 0 96.6 487
03:55:47 16 996 0 1 S 0 96.6 493
03:58:47 15 997 0 8 S 0 96.6 487
04:01:49 15 996 0 1 SO 0 96.6 495
04:04:46 15 996 0 1 SO 0 96.6 495
04:07:49 15 996 0 1 SO 0 96.6 495
04:10:47 15 996 0 0 SO 0 96.6 489
04:13:47 15 996 0 2 S 0 96.6 483
04:16:47 15 996 0 0 SW 0 96.6 485
04:19:47 15 996 0 0 W 0 96.6 486
04:22:48 15 996 0 3 SW 0 96.6 489
04:25:48 15 996 0 0 S 0 96.6 486
04:28:46 15 997 3 0 SO 0 96.6 487
04:31:46 15 996 5 0 W 0 96.6 488
04:34:46 15 997 7 0 O 0 96.6 489
04:37:47 15 996 11 2 SO 0 96.6 495
04:40:45 15 996 15 1 S 0 96.6 489
04:43:47 15 997 20 4 SW 0 96.6 489
04:46:49 15 997 26 2 O 0 96.6 492
04:49:45 15 997 32 1 W 0 96.6 498
04:52:48 15 996 39 0 SW 0 96.6 495
04:55:48 15 997 47 3 SO 0 96.6 489
04:58:45 15 996 54 0 S 0 96.6 489
05:01:47 15 997 62 1 SW 0 96.6 490
05:04:48 15 997 68 1 SW 0 96.6 492
05:07:47 15 997 74 0 SO 0 96.6 489
05:10:48 14 996 78 0 S 0 96.6 486
05:13:48 14 996 71 2 SW 0 96.6 489
05:16:47 15 997 87 4 SW 0 96.6 500
05:19:49 15 996 96 1 SO 0 96.6 500
05:22:48 15 996 99 1 SO 0 96.6 501
05:25:49 15 996 101 3 SO 0 96.6 494
05:28:50 15 997 94 2 SW 0 96.6 486
05:31:48 15 998 97 2 SO 0 96.6 492
05:34:48 15 997 95 3 SO 0 96.6 488
05:37:46 15 997 86 2 SO 0 96.6 495
05:40:49 15 997 84 2 S 0 96.6 487
05:43:49 15 998 85 1 SW 0 96.6 489
05:46:48 15 998 86 2 SW 0 96.6 486
05:49:47 15 997 86 1 W 0 96.6 486
05:52:48 15 998 86 1 NO 0 96.6 483
05:55:49 15 998 96 2 SW 0 96.6 486
05:58:47 15 998 114 3 SW 0 96.6 489
06:01:48 15 997 109 1 S 0 96.6 490
06:04:48 16 997 124 2 S 0 96.6 492
06:07:50 16 998 148 2 SO 0 96.6 489
06:10:48 16 997 161 1 S 0 96.6 492
06:13:47 16 998 162 4 S 0 96.6 484
06:16:47 16 997 175 4 SO 0 96.6 488
06:19:48 16 997 177 3 SO 0 96.6 492
06:22:48 16 998 181 3 SW 0 96.6 492
06:25:48 16 998 183 8 SO 0 96.6 489
06:28:51 16 998 187 2 SO 0 96.6 483
06:31:48 16 997 183 1 NW 0 96.6 484
06:34:50 16 997 179 7 NW 0 96.6 496
06:37:48 16 998 181 5 SW 0 96.6 489
06:40:47 16 997 185 3 S 0 96.6 486
06:43:51 16 997 184 4 SW 0 96.6 490
06:46:50 16 997 182 2 SW 0 96.6 495
06:49:50 16 997 190 3 SW 0 96.6 496
06:52:49 16 998 194 1 W 0 96.6 497
06:55:50 17 997 199 4 S 0 96.6 489
06:58:50 17 997 197 3 O 0 96.6 486
07:01:48 17 997 183 2 S 0 96.6 483
07:04:51 17 998 183 3 SW 0 96.6 483
07:07:51 17 998 182 1 SO 0 96.5 480
07:10:49 17 998 182 8 SW 0 96.6 483
07:13:48 17 998 185 1 NW 0 96.6 485
07:16:49 17 998 187 2 SW 0 96.6 485
07:19:48 17 998 187 5 SW 0 96.6 480
07:22:47 17 997 187 3 O 0 96.5 483
07:25:47 17 997 187 1 W 0 96.5 489
07:28:51 18 998 188 8 S 0 95.7 486
07:31:49 18 998 188 0 NW 0 94.7 489
07:34:50 19 998 186 3 SW 0 89.6 487
07:37:50 19 998 189 3 SW 0 87.1 483
07:40:50 19 998 188 2 W 0 87 481
07:43:50 19 998 185 6 SW 0 84.9 480
07:46:49 19 998 186 6 S 0 84.8 477
07:49:49 20 998 188 3 S 0 83.4 483
07:52:48 20 998 187 7 SW 0 81.9 483
07:55:47 21 998 187 1 S 0 80.1 480
07:58:46 21 998 188 1 N 0 78.4 480
08:01:48 21 998 189 5 SW 0 75.1 480
08:04:49 21 998 190 13 S 0 74 480
08:07:47 20 998 190 3 S 0 76 478
08:10:49 19 998 191 8 S 0 78.9 480
08:13:48 19 998 189 6 W 0 80.4 480
08:16:48 18 998 189 6 S 0 81.5 486
08:19:48 18 998 189 0 S 0 84.1 480
08:22:49 18 998 207 2 NO 0 84.1 484
08:25:47 18 998 207 3 S 0 85.4 478
08:28:48 18 998 206 1 SO 0 85.2 474
08:31:46 18 998 191 3 W 0 85.4 471
08:34:49 18 998 186 2 0 85.5 478
08:37:49 18 998 184 1 SW 0 84.4 483
08:40:50 18 998 183 3 S 0 84.2 486
08:43:49 18 998 183 0 W 0 84 487
08:46:47 17 998 185 3 SW 0 84.4 480
08:49:49 17 998 186 4 SW 0 85.5 475
08:52:46 17 998 188 2 W 0 85.4 477
08:55:48 17 998 196 7 NW 0 84.9 480
08:58:49 17 999 191 3 SO 0 84.9 480
09:01:49 18 998 188 3 SW 0 83.5 474
09:04:48 18 998 188 0 S 0 82.9 480
09:07:49 18 998 186 0 S 0 82.8 474
09:10:50 18 998 186 17 SW 0 83.4 478
09:13:47 18 998 189 4 SW 0 82.7 477
09:16:48 18 998 190 3 W 0 82.9 486
09:19:47 18 998 194 0 O 0 83.4 486
09:22:48 18 998 197 4 S 0 83.2 481
09:25:49 18 998 212 3 SO 0 82.4 478
09:28:50 18 998 218 5 N 0 80.8 478
09:31:49 18 998 217 2 S 0 81.5 480
09:34:50 19 998 218 5 SW 0 76.8 483
09:37:50 19 999 210 0 N 0 76.8 492
09:40:47 19 998 210 1 S 0 76.9 490
09:43:48 19 998 201 7 NO 0 77 486
09:46:48 19 998 204 2 SW 0 77.9 480
09:49:50 19 998 208 2 S 0 76.4 484
09:52:47 19 998 199 3 S 0 76.2 483
09:55:50 19 998 195 8 SW 0 75.8 480
09:58:48 19 999 188 2 S 0 76.2 483
10:01:49 18 998 202 1 S 0 76.9 477
10:04:47 18 998 201 2 SO 0 77.5 477
10:07:47 18 998 203 4 S 0 78.3 471
10:10:50 19 998 203 5 S 0 78.2 478
10:13:49 19 998 204 4 SW 0 77 480
10:16:48 19 998 203 4 S 0 76.8 472
10:19:49 19 998 208 6 S 0 76.5 469
10:22:49 19 998 207 4 SW 0 76.1 466
10:25:47 20 998 205 2 W 0 74.8 469
10:28:48 20 998 209 8 W 0 74.1 468
10:31:47 20 998 218 17 S 0 74.1 468
10:34:45 20 998 217 5 N 0 71.7 472
10:37:48 20 998 212 3 NW 0 72.3 475
10:40:49 20 998 213 5 SW 0 72.8 478
10:43:48 20 998 211 2 NW 0 71.9 475
10:46:48 20 998 214 1 SO 0 72.7 475
10:49:49 20 998 211 5 S 0 73 469
10:52:49 20 998 213 2 S 0 73.3 463
10:55:48 20 998 208 2 S 0 72.9 462
10:58:46 20 998 207 4 O 0 69.9 462
11:01:48 20 998 205 8 S 0 69.1 467
11:04:47 21 998 206 4 SW 0 70.2 468
11:07:50 21 998 207 2 SW 0 69.8 475
11:10:49 21 998 204 4 W 0 71.6 472
11:13:48 21 998 204 3 N 0 70.2 468
11:16:48 21 998 204 5 SW 0 68.1 469
11:19:47 21 998 204 3 W 0 66.7 480
11:22:46 21 998 206 7 SW 0 67 474
11:25:49 21 998 210 3 SW 0 65.3 470
11:28:49 21 998 219 8 W 0 65 458
11:31:49 21 998 224 2 NW 0 64.9 455
11:34:48 22 998 216 0 SW 0 66 468
11:37:48 22 998 217 4 W 0 66.5 465
11:40:48 22 998 218 4 W 0 67.1 463
11:43:49 23 998 217 1 SO 0 68.6 461
11:46:48 23 998 217 4 S 0 68.6 457
11:49:47 23 998 218 6 S 0 64.9 463
11:52:49 24 998 214 1 SO 0 63.2 465
11:55:48 23 998 219 2 SW 0 61.9 456
11:58:48 24 998 217 4 W 0 62.5 452
12:01:50 24 998 216 2 NW 0 60.5 456
12:04:49 24 998 221 3 SW 0 60.5 462
12:07:50 24 998 214 2 SW 0 59.9 463
12:10:48 24 998 216 6 SW 0 58.2 461
12:13:50 25 998 219 1 NW 0 58 456
12:16:50 25 998 224 1 NW 0 58.3 463
12:19:49 25 998 223 2 SW 0 58.4 460
12:22:31 24 998 223 5 SO 0 51 456
12:25:47 25 998 222 3 O 0 53.6 451
12:28:48 25 998 222 8 S 0 54.3 459
12:31:46 26 998 225 2 S 0 54.5 456
12:34:50 26 998 221 6 NW 0 51 456
12:37:46 25 998 218 7 O 0 49.6 448
12:40:32 24 998 226 14 SW 0 40 459
12:43:48 23 998 228 2 SW 0 53.2 466
12:46:50 24 998 229 1 NW 0 57.2 462
12:49:49 23 998 226 4 NO 0 54.8 463
12:52:49 23 998 222 6 SW 0 54.3 454
12:55:47 23 998 219 3 SO 0 53.8 454
12:58:46 22 998 224 0 O 0 55.8 453
13:01:50 23 998 229 1 W 0 61.4 460
13:04:46 24 999 223 4 S 0 55 462
13:07:47 24 998 222 3 S 0 54.8 460
13:10:48 23 998 225 4 SO 0 55.3 460
13:13:47 23 998 225 1 S 0 57.2 454
13:16:45 23 998 221 1 W 0 57.3 457
13:19:48 23 998 227 1 W 0 56.9 454
13:22:49 23 998 231 0 SW 0 58.9 455
13:25:47 23 998 231 2 SO 0 57.7 459
13:28:50 23 998 225 2 S 0 56.1 456
13:31:48 23 998 229 2 W 0 55.6 445
13:34:50 24 998 228 2 S 0 56 442
13:37:50 24 998 229 2 NO 0 53 454
13:40:47 24 998 232 3 SO 0 52.7 456
13:43:49 25 998 232 9 S 0 52 451
13:46:48 25 998 222 6 SO 0 49.1 454
13:49:49 25 998 231 1 SW 0 49.6 454
13:52:47 25 998 233 4 S 0 50.2 460
13:55:47 26 998 232 6 S 0 44.8 459
13:58:49 26 998 233 7 SW 0 44.3 463
14:01:47 26 998 234 8 S 0 43.4 456
14:04:50 26 998 230 6 W 0 43.9 454
14:07:46 26 998 234 3 S 0 44.3 451
14:10:49 26 998 235 3 SW 0 43.2 454
14:13:49 27 998 235 5 SO 0 47 451
14:16:47 27 998 229 6 SO 0 47.2 454
14:19:48 26 998 233 1 SO 0 49.6 451
14:22:49 25 998 228 4 NW 0 51.7 451
14:25:48 25 998 216 1 W 0 53.1 454
14:28:46 24 998 217 1 O 0 54.4 450
14:31:48 24 998 228 1 SO 0 56.2 451
14:34:47 24 998 241 0 NW 0 57.4 446
14:37:48 25 998 243 3 NW 0 58.1 445
14:40:50 25 998 221 2 SO 0 57.5 445
14:43:48 25 998 209 2 SO 0 57.3 451
14:46:48 25 998 211 0 N 0 56.4 454
14:49:48 24 998 222 1 SO 0 58.3 454
14:52:48 23 998 226 4 O 0 60.7 460
14:55:52 22 998 228 0 SO 0 63.7 459
14:58:47 22 998 227 0 O 0 65 456
15:01:48 22 998 233 1 W 0 66.8 456
15:04:47 22 998 238 1 S 0 67.2 465
15:07:50 23 998 235 1 W 0 66.3 467
15:10:49 23 998 245 1 SW 0 64.5 478
15:13:48 24 998 236 1 W 0 57.8 495
15:16:47 24 998 228 3 0 57.6 506
15:19:50 23 998 218 0 SW 0 55.6 515
15:22:52 23 998 216 0 NW 0 58.1 524
15:25:48 23 998 225 2 SW 0 58.3 530
15:28:47 22 998 237 0 S 0 60.7 530
15:31:49 23 998 234 9 N 0 61 533
15:34:48 23 998 231 0 S 0 60 544
15:37:48 23 998 233 1 SW 0 59.2 551
15:40:48 24 998 233 1 O 0 57.2 550
15:43:47 24 998 232 3 S 0 53.9 563
15:46:49 24 998 233 1 SW 0 52.9 575
15:49:47 23 998 239 2 SO 0 53.9 579
15:52:50 24 998 233 0 W 0 52.6 586
15:55:48 24 998 235 1 SO 0 52.7 592
15:58:48 24 998 247 2 SW 0 50.7 591
16:01:50 25 998 239 2 SW 0 50.6 597
16:04:50 25 998 239 2 SW 0 49.9 598
16:07:48 25 998 247 4 SW 0 49 603
16:10:48 26 998 226 1 S 0 50.2 601
16:13:46 27 998 221 10 0 45.6 611
16:16:45 27 998 214 1 0 45.3 617
16:19:48 26 998 198 1 S 0 45.3 606
16:22:49 26 998 195 4 SO 0 46.5 571
16:25:48 25 998 222 5 W 0 46.9 547
16:28:48 25 998 220 0 S 0 48.5 527
16:31:46 24 998 218 1 S 0 49.4 509
16:34:47 24 998 219 1 NW 0 50.4 460
16:37:49 24 998 216 0 SW 0 52.3 445
16:40:47 24 998 214 2 SW 0 52.5 436
16:43:49 23 998 229 0 NW 0 52.5 439
16:46:49 24 998 247 0 O 0 55 442
16:49:48 25 998 244 0 O 0 54.6 436
16:52:48 27 998 239 3 S 0 46.3 447
16:55:50 27 998 145 3 S 0 44.9 456
16:58:50 25 998 170 1 SW 0 46.2 469
17:01:46 24 998 156 1 S 0 47.8 482
17:04:48 23 998 150 3 NW 0 49.2 490
17:07:32 24 998 178 2 SW 0 40 480
17:10:50 22 998 133 0 NO 1.03 53.5 460
17:13:48 22 998 146 1 SW 0.2575 54.9 445
17:16:49 21 998 159 2 SW 0 60.3 439
17:19:31 21 998 192 4 NW 0 40 436
17:22:47 19 998 201 1 W 0 67.3 451
17:25:48 18 998 193 2 S 0 74.3 458
17:28:31 19 999 195 2 W 0.2575 40 460
17:31:49 17 999 197 4 SW 0 81.3 469
17:34:47 16 998 209 2 W 0 87.2 474
17:37:52 16 998 217 2 NW 0 87.6 485
17:40:47 16 998 229 0 N 0 87.9 489
17:43:49 17 999 246 2 N 0.2575 89.8 491
17:46:50 18 998 242 1 N 0 89.8 489
17:49:48 19 998 237 0 O 0 88.8 492
17:52:50 19 998 236 0 NW 0 83.3 498
17:55:48 19 998 219 0 SO 0 83.8 497
17:58:50 19 998 212 0 NW 0 83.6 515
18:01:51 18 998 212 2 NW 0 82.6 528
18:04:50 18 998 232 1 NW 0 84.4 539
18:07:48 19 998 211 1 S 0.7725 90 536
18:10:52 20 998 229 0 O 0 80.3 507
18:13:47 20 998 226 2 SO 0 79.6 477
18:16:49 19 998 224 0 SO 0 79.6 480
18:19:48 19 998 219 0 NO 0 80.5 501
18:22:48 19 998 212 1 S 0 84 510
18:25:50 18 998 203 2 W 0 84 509
18:28:50 18 998 213 0 SO 0 84.7 506
18:31:48 18 998 223 2 S 0 85.4 500
18:34:47 18 998 219 5 S 0 86.3 489
18:37:47 18 998 236 1 O 0 86 486
18:40:50 19 998 245 4 SO 0 86.6 483
18:43:49 19 998 227 3 SO 0 85.1 483
18:46:46 19 998 233 3 O 0 84.8 486
18:49:48 19 998 228 5 SO 0 84.7 480
18:52:50 20 998 238 3 S 0 83.6 480
18:55:49 20 998 233 2 S 0 82.4 486
18:58:48 20 998 227 2 SW 0 81.4 486
19:01:47 20 998 211 1 O 0 81.1 486
19:04:48 19 998 212 3 S 0 80.4 481
19:07:46 19 998 213 2 SO 0 81.6 477
19:10:48 18 998 214 1 SO 0 83 474
19:13:50 18 998 220 2 SO 0 83.8 480
19:16:47 18 998 223 2 S 0 84.6 483
19:19:48 18 997 220 2 SW 0 84.7 480
19:22:49 18 998 217 3 SW 0 86.7 482
19:25:50 18 998 204 5 SO 0 86.7 483
19:28:48 18 998 213 3 S 0 86.3 478
19:31:50 18 998 209 4 S 0 86.5 474
19:34:47 18 998 209 1 S 0 86.2 471
19:37:47 18 998 199 1 S 0 86.5 474
19:40:48 18 998 207 2 S 0 86.5 480
19:43:46 18 998 210 4 S 0 87 480
19:46:47 18 998 204 3 S 0 87.4 480
19:49:49 18 998 195 2 SO 0 85.4 478
19:52:48 18 998 156 4 SW 0 85.5 477
19:55:47 17 998 193 4 SO 0 85.9 459
19:58:48 17 998 191 3 SO 0 86.3 460
20:01:47 17 998 191 2 O 0 86.9 471
20:04:48 17 998 190 0 NO 0 87 494
20:07:47 17 998 190 1 O 0 87.3 510
20:10:48 17 998 187 3 S 0 87.4 536
20:13:47 17 998 184 6 SO 0 87.4 545
20:16:48 17 998 183 1 SO 0 87.7 547
20:19:47 17 998 181 3 S 0 87.8 545
20:22:48 17 998 180 3 SO 0 88.1 545
20:25:49 17 998 135 1 SO 0 88.7 536
20:28:48 17 998 133 0 SO 0 88.9 500
20:31:49 17 998 131 4 SO 0 89 434
20:34:49 17 997 129 3 SO 0 89.3 404
20:37:48 16 998 126 2 SO 0 89.2 404
20:40:49 16 998 123 1 SO 0 89.3 405
20:43:50 16 998 120 2 SO 0 89.3 403
20:46:45 16 998 118 1 S 0 89.4 407
20:49:50 16 998 116 4 SO 0 89.6 404
20:52:48 16 997 112 0 S 0 89.8 404
20:55:49 16 998 107 1 SW 0 90 401
20:58:48 16 998 102 2 S 0 90.1 406
21:01:51 16 998 96 1 SO 0 90.1 407
21:04:48 16 998 90 2 SO 0 90.5 403
21:07:47 16 998 86 0 S 0 90.5 407
21:10:48 16 998 81 0 S 0 90.6 409
21:13:46 16 998 77 0 W 0 90.1 404
21:16:46 15 998 72 0 SO 0 90.1 407
21:19:47 15 998 69 0 SO 0 90.3 404
21:22:46 15 998 66 1 S 0 90.4 401
21:25:48 15 998 93 1 SO 0 90.7 404
21:28:49 15 998 84 0 SO 0 90.8 407
21:31:46 15 998 74 0 S 0 91 404
21:34:47 15 998 66 1 SO 0 91.2 404
21:37:45 15 998 58 1 S 0 91.6 406
21:40:48 15 998 50 0 SO 0 91.9 404
21:43:46 15 998 42 0 S 0 92 415
21:46:48 15 998 35 1 SO 0 92.2 427
21:49:48 15 998 29 2 S 0 92.3 439
21:52:47 15 998 23 0 S 0 92.2 448
21:55:48 15 998 18 2 SO 0 92.1 442
21:58:45 14 998 14 0 S 0 92.1 448
22:01:46 14 998 11 0 O 0 92 448
22:04:47 14 998 8 0 S 0 91.9 457
22:07:46 14 998 6 0 S 0 91.9 466
22:10:48 14 998 5 0 SO 0 92.2 480
22:13:48 14 998 4 0 SO 0 92.2 480
22:16:48 14 998 4 0 SO 0 92.2 486
22:19:48 14 998 3 0 S 0 92.3 494
22:22:48 14 998 0 2 SO 0 92.4 498
22:25:46 14 998 0 2 S 0 92.4 498
22:28:48 14 998 0 2 SO 0 92.7 506
22:31:48 14 998 0 0 S 0 92.4 506
22:34:45 14 998 0 1 S 0 92.1 509
22:37:54 14 998 0 1 SO 0 91.8 515
22:40:46 14 998 0 1 SO 0 91.7 518
22:43:45 14 998 0 0 S 0 91.6 515
22:46:47 14 998 0 0 S 0 91.6 503
22:49:46 14 998 0 0 O 0 91.6 507
22:52:47 14 998 0 0 O 0 91.4 509
22:55:45 13 998 0 0 O 0 91.7 513
22:58:46 13 998 0 0 O 0 91.8 516
23:01:49 13 997 0 0 SO 0 92.5 519
23:04:47 13 998 0 1 SO 0 92.7 512
23:07:47 13 998 0 1 S 0 93 501
23:10:47 14 998 0 0 S 0 92.8 512
23:13:46 14 997 0 0 S 0 92.8 522
23:16:47 14 998 0 0 S 0 92.5 524
23:19:47 14 998 0 0 NW 0 92.2 520
23:22:47 14 998 0 0 NW 0 91.7 521
23:25:46 14 998 0 0 S 0 91.3 524
23:28:45 14 998 0 0 S 0 90.9 524
23:31:49 14 998 0 3 SO 0 90.6 524
23:34:47 15 998 0 2 S 0 90.4 518
23:37:46 15 998 0 3 S 0 90.1 522
23:40:49 15 998 0 0 SO 0 89.7 521
23:43:48 15 998 0 2 SO 0 89.3 539
23:46:46 15 998 0 2 SO 0 89.1 544
23:49:48 15 998 0 1 S 0 88.7 539
23:52:45 15 998 0 2 S 0 88.3 539
23:55:47 15 998 0 2 S 0 87.9 545
23:58:47 15 998 0 2 S 0 87.8 548

Letzte Änderung : 22-Jul-2022
Copyright Jens Köhler, Wolfsburg, Obere Dorfstraße 10d